Stündliche Wetter Cauquenes

Heute, 28 Oktober, Mittwoch

Zeit Temperatur Niederschläge Wind Luftdruck Luftfeuchtigkeit
00:00 +7°C° 0 mm 0 m/S 752 mmHg 91%
01:00 +7°C° 0 mm 0 m/S 752 mmHg 91%
02:00 +6°C° 0 mm 0 m/S 752 mmHg 92%
03:00 +7°C° 0 mm 1 m/S 752 mmHg 92%
04:00 +7°C° 0 mm 1 m/S 752 mmHg 92%
05:00 +8°C° 0 mm 0 m/S 753 mmHg 84%
06:00 +10°C° 0 mm 0 m/S 753 mmHg 77%
07:00 +12°C° 0 mm 0 m/S 754 mmHg 69%
08:00 +14°C° 0 mm 1 m/S 754 mmHg 63%
09:00 +16°C° 0 mm 2 m/S 754 mmHg 57%
10:00 +18°C° 0 mm 2 m/S 754 mmHg 51%
11:00 +18°C° 0 mm 3 m/S 753 mmHg 49%
12:00 +19°C° 0 mm 4 m/S 753 mmHg 47%
13:00 +20°C° 0 mm 4 m/S 752 mmHg 45%
14:00 +20°C° 0 mm 5 m/S 752 mmHg 46%
15:00 +19°C° 0 mm 5 m/S 751 mmHg 48%
16:00 +19°C° 0 mm 6 m/S 751 mmHg 49%
17:00 +16°C° 0 mm 5 m/S 751 mmHg 54%
18:00 +14°C° 0 mm 5 m/S 751 mmHg 59%
19:00 +12°C° 0 mm 4 m/S 751 mmHg 64%
20:00 +11°C° 0 mm 4 m/S 751 mmHg 68%
21:00 +10°C° 0 mm 4 m/S 751 mmHg 71%
22:00 +7°C° 0 mm 4 m/S 750 mmHg 75%
23:00 +8°C° 0 mm 3 m/S 750 mmHg 78%

Morgen, 29 Oktober, Donnerstag

Zeit Temperatur Niederschläge Wind Luftdruck Luftfeuchtigkeit
00:00 +7°C° 0 mm 3 m/S 750 mmHg 80%
01:00 +5°C° 0 mm 3 m/S 749 mmHg 82%
02:00 +5°C° 0 mm 2 m/S 749 mmHg 84%
03:00 +5°C° 0 mm 2 m/S 749 mmHg 85%
04:00 +5°C° 0 mm 2 m/S 749 mmHg 87%
05:00 +5°C° 0 mm 3 m/S 749 mmHg 80%
06:00 +8°C° 0 mm 3 m/S 749 mmHg 72%
07:00 +10°C° 0 mm 3 m/S 749 mmHg 65%
08:00 +12°C° 0 mm 3 m/S 749 mmHg 58%
09:00 +16°C° 0 mm 3 m/S 749 mmHg 51%
10:00 +19°C° 0 mm 3 m/S 748 mmHg 45%
11:00 +20°C° 0 mm 3 m/S 748 mmHg 42%
12:00 +22°C° 0 mm 3 m/S 748 mmHg 39%
13:00 +25°C° 0 mm 4 m/S 747 mmHg 36%
14:00 +25°C° 0 mm 4 m/S 747 mmHg 38%
15:00 +25°C° 0 mm 4 m/S 747 mmHg 39%
16:00 +25°C° 0 mm 4 m/S 747 mmHg 41%
17:00 +21°C° 0 mm 3 m/S 747 mmHg 49%
18:00 +18°C° 0 mm 2 m/S 747 mmHg 57%
19:00 +15°C° 0 mm 2 m/S 747 mmHg 66%
20:00 +15°C° 0 mm 1 m/S 747 mmHg 68%
21:00 +14°C° 0 mm 1 m/S 748 mmHg 70%
22:00 +13°C° 0 mm 1 m/S 748 mmHg 73%
23:00 +13°C° 0 mm 1 m/S 748 mmHg 76%

übermorgen, 30 Oktober, Freitag

Zeit Temperatur Niederschläge Wind Luftdruck Luftfeuchtigkeit
00:00 +12°C° 0 mm 1 m/S 748 mmHg 79%
01:00 +11°C° 0 mm 1 m/S 747 mmHg 81%
02:00 +11°C° 0 mm 1 m/S 747 mmHg 83%
03:00 +11°C° 0 mm 1 m/S 747 mmHg 84%
04:00 +10°C° 0 mm 1 m/S 747 mmHg 85%
05:00 +12°C° 0 mm 1 m/S 748 mmHg 79%
06:00 +13°C° 0 mm 1 m/S 748 mmHg 72%
07:00 +15°C° 0 mm 1 m/S 748 mmHg 66%
08:00 +19°C° 0 mm 1 m/S 748 mmHg 59%
09:00 +22°C° 0 mm 1 m/S 748 mmHg 52%
10:00 +25°C° 0 mm 1 m/S 748 mmHg 45%
11:00 +26°C° 0 mm 2 m/S 748 mmHg 41%
12:00 +28°C° 0 mm 2 m/S 747 mmHg 37%
13:00 +29°C° 0 mm 2 m/S 747 mmHg 33%
14:00 +29°C° 0 mm 2 m/S 747 mmHg 34%
15:00 +28°C° 0 mm 2 m/S 747 mmHg 35%
16:00 +28°C° 0 mm 2 m/S 747 mmHg 36%
17:00 +25°C° 0 mm 2 m/S 747 mmHg 45%
18:00 +21°C° 0 mm 1 m/S 747 mmHg 54%
19:00 +18°C° 0 mm 1 m/S 747 mmHg 63%
20:00 +18°C° 0 mm 1 m/S 747 mmHg 62%
21:00 +16°C° 0 mm 1 m/S 747 mmHg 61%
22:00 +15°C° 0 mm 1 m/S 747 mmHg 61%
23:00 +15°C° 0 mm 1 m/S 747 mmHg 63%

31 Oktober, Samstag

Zeit Temperatur Niederschläge Wind Luftdruck Luftfeuchtigkeit
00:00 +14°C° 0 mm 1 m/S 747 mmHg 66%
01:00 +14°C° 0 mm 1 m/S 747 mmHg 69%
02:00 +13°C° 0 mm 0 m/S 747 mmHg 73%
03:00 +12°C° 0 mm 0 m/S 746 mmHg 76%
04:00 +12°C° 0 mm 0 m/S 746 mmHg 80%
05:00 +13°C° 0 mm 0 m/S 747 mmHg 74%
06:00 +16°C° 0 mm 1 m/S 747 mmHg 69%
07:00 +19°C° 0 mm 1 m/S 747 mmHg 63%
08:00 +22°C° 0 mm 1 m/S 747 mmHg 56%
09:00 +24°C° 0 mm 1 m/S 747 mmHg 50%
10:00 +27°C° 0 mm 2 m/S 747 mmHg 43%
11:00 +28°C° 0 mm 2 m/S 747 mmHg 39%
12:00 +29°C° 0 mm 2 m/S 747 mmHg 35%
13:00 +30°C° 0 mm 2 m/S 747 mmHg 32%
14:00 +29°C° 0 mm 2 m/S 747 mmHg 33%
15:00 +28°C° 0 mm 2 m/S 747 mmHg 35%
16:00 +28°C° 0 mm 3 m/S 747 mmHg 36%
17:00 +24°C° 0 mm 2 m/S 747 mmHg 43%
18:00 +20°C° 0 mm 2 m/S 747 mmHg 49%
19:00 +17°C° 0 mm 2 m/S 747 mmHg 55%
20:00 +18°C° 0 mm 1 m/S 747 mmHg 53%
21:00 +16°C° 0 mm 1 m/S 747 mmHg 52%
22:00 +14°C° 0 mm 0 m/S 748 mmHg 51%
23:00 +14°C° 0 mm 0 m/S 747 mmHg 51%

1 November, Sonntag

Zeit Temperatur Niederschläge Wind Luftdruck Luftfeuchtigkeit
00:00 +14°C° 0 mm 0 m/S 747 mmHg 51%
01:00 +14°C° 0 mm 0 m/S 747 mmHg 51%
02:00 +13°C° 0 mm 0 m/S 747 mmHg 52%
03:00 +13°C° 0 mm 0 m/S 747 mmHg 53%
04:00 +13°C° 0 mm 0 m/S 747 mmHg 54%
05:00 +14°C° 0 mm 0 m/S 747 mmHg 52%
06:00 +16°C° 0 mm 0 m/S 747 mmHg 51%
07:00 +17°C° 0 mm 0 m/S 748 mmHg 49%
08:00 +22°C° 0 mm 1 m/S 748 mmHg 46%
09:00 +24°C° 0 mm 1 m/S 748 mmHg 42%
10:00 +26°C° 0 mm 1 m/S 748 mmHg 38%
11:00 +27°C° 0 mm 1 m/S 748 mmHg 37%
12:00 +27°C° 0 mm 2 m/S 748 mmHg 36%
13:00 +28°C° 0 mm 2 m/S 747 mmHg 34%
14:00 +27°C° 0 mm 2 m/S 747 mmHg 37%
15:00 +26°C° 0 mm 3 m/S 747 mmHg 39%
16:00 +25°C° 0 mm 3 m/S 747 mmHg 41%
17:00 +21°C° 0 mm 3 m/S 747 mmHg 52%
18:00 +18°C° 0 mm 2 m/S 747 mmHg 62%
19:00 +14°C° 0 mm 2 m/S 747 mmHg 73%
20:00 +13°C° 0 mm 1 m/S 747 mmHg 75%
21:00 +13°C° 0 mm 1 m/S 748 mmHg 76%
22:00 +12°C° 0 mm 1 m/S 748 mmHg 78%
23:00 +11°C° 0 mm 0 m/S 748 mmHg 77%

2 November, Montag

Zeit Temperatur Niederschläge Wind Luftdruck Luftfeuchtigkeit
00:00 +10°C° 0 mm 0 m/S 747 mmHg 76%
01:00 +10°C° 0 mm 0 m/S 747 mmHg 75%
02:00 +10°C° 0 mm 0 m/S 747 mmHg 76%
03:00 +9°C° 0 mm 0 m/S 747 mmHg 77%
04:00 +9°C° 0 mm 0 m/S 747 mmHg 77%
05:00 +12°C° 0 mm 1 m/S 747 mmHg 72%
06:00 +14°C° 0 mm 1 m/S 747 mmHg 66%
07:00 +16°C° 0 mm 1 m/S 748 mmHg 60%
08:00 +19°C° 0 mm 1 m/S 748 mmHg 53%
09:00 +21°C° 0 mm 2 m/S 748 mmHg 46%
10:00 +24°C° 0 mm 2 m/S 748 mmHg 40%
11:00 +25°C° 0 mm 3 m/S 748 mmHg 38%
12:00 +25°C° 0 mm 3 m/S 748 mmHg 37%
13:00 +26°C° 0 mm 4 m/S 748 mmHg 36%
14:00 +25°C° 0 mm 4 m/S 747 mmHg 40%
15:00 +23°C° 0 mm 4 m/S 747 mmHg 44%
16:00 +22°C° 0 mm 3 m/S 747 mmHg 48%
17:00 +19°C° 0 mm 3 m/S 747 mmHg 59%
18:00 +16°C° 0 mm 2 m/S 747 mmHg 69%
19:00 +13°C° 0 mm 2 m/S 747 mmHg 80%
20:00 +12°C° 0 mm 1 m/S 748 mmHg 81%
21:00 +11°C° 0 mm 1 m/S 748 mmHg 82%
22:00 +10°C° 0 mm 1 m/S 748 mmHg 83%
23:00 +10°C° 0 mm 1 m/S 748 mmHg 81%
Mehr zeigen